Terminal Aerodrome Forecast
Issued by NWS Sterling, VA

Home | Current Version | Previous Version | Text Only | Print | Product List | Glossary On
Versions: 1 2 3 4 5 6 7 8 9 10 11 12 13 14 15 16 17 18 19 20 21
000
FTUS41 KLWX 011500 AAA
TAFDCA
TAF AMD
KDCA 011500Z 0115/0212 19005KT 6SM -SHRA BKN050 OVC100
     FM020000 14005KT 6SM -SHRA SCT025 OVC050
     FM020200 09006KT P6SM OVC050=

USA.gov is the U.S. government's official web portal to all federal, state and local government web resources and services.